sat.trackr.live / text

‹ back to catalog

STARLINK-11535 [DTC]

NORAD 62595 · 2025-008J

PAYLOAD ACTIVE UNKNOWN

§ Identity

Operator
Country
US
Launch date
2025-01-13
Launch site
AFETR
Launch vehicle
Mass (kg)
RCS (m²)

Purposes: comms

External: N2YO · Heavens-Above · Gunter

§ Orbital elements

Epoch: 2026-09-21T19:29:48.087168Z

Period
91.67 min
Inclination
43.0036°
Eccentricity
0.0002748
Mean motion
15.70885540 rev/d
Perigee alt
354.5 km
Apogee alt
358.2 km
Semi-major
6,734.5 km
B*
9.8369e-4
RAAN
23.6060°
Arg perigee
270.4596°
Mean anomaly
89.5957°
Rev number
9,798

§ Raw data

STARLINK-11535 [DTC]1 62595U 25008J   26264.81236212  .00127990  00000+0  98369-3 0  99922 62595  43.0036  23.6060 0002748 270.4596  89.5957 15.70885540 97985

JSON: /api/v1/satellites/62595 · /tle

For live sub-satellite position, see the globe view (requires WebGL).

§ Visibility from observer

Set your observer location to see the next 7 days of passes ≥ 10°. The values pass through the URL so the page stays shareable.

No JS? Fill the form by hand. The geolocation button needs JavaScript.